www.pogodaiklimat.ru

Погода и климат >> Архив погоды >> Индонезия >> Санана


ПОГОДА на Санане

  • Прогноз погоды на Санане
  • Монитор погоды на Санане

АРХИВ ПОГОДЫ на Санане

Время (UTC), дата Ветер
(напр.,м/с)
 
Видим.   Явления Облачность Т
(С)
Тd
(С)
f
(%)
Тe
(С)
Тes
(С)
Комфортность P
(гПа)
Po
(гПа)
Тmin
(С)
Tmax
(С)
R
(мм)
R24
(мм)
S
(см)
12 13.05 З 1 9000 м 6/4 570 м
[Cu med, cong Ac trans Ci fib]
+27.6 +24.7 84 +39 +39 очень
душно
1011.4 1011.1 +31.6
15 13.05 З 1 10 км 6/3 570 м
[Cu med, cong Ac trans Ci fib]
+26.4 +24.3 88 +37 +37 очень
душно
1011.8 1011.6
18 13.05 штиль 0 10 км 6/4 570 м
[Cu med, cong Ac trans Ci fib]
+25.6 +24.1 91 +35 +35 очень
душно
1009.8 1009.6
00 14.05 В 2 10 км 5/3 570 м
[Cu med, cong Ac trans Ci fib]
+27.4 +26.2 93 +41 +45 опасность
перегрева
1012.1 1011.9 +24.4 0.0
03 14.05 В 3 10 км 5/3 570 м
[Cu med, cong Ac trans Ci fib]
+31.8 +25.0 67 +45 +55 опасность
перегрева
1011.3 1011.1
06 14.05 ЮВ 1 10 км 5/3 570 м
[Cu med, cong Ac trans Ci fib]
+31.6 +24.8 67 +45 +53 опасность
перегрева
1009.1 1008.8
09 14.05 В 1 10 км 6/4 570 м
[Cu med, cong Ac trans Ci fib]
+30.8 +25.4 73 +45 +45 опасность
перегрева
1009.3 1009.1
12 14.05 З 2 9000 м 9/4 570 м
[Cu med, cong Ac trans Ci fib]
+28.4 +25.5 84 +42 +42 опасность
перегрева
1010.9 1010.7 +32.4
15 14.05 З 1 9000 м 8/4 570 м
[Cu med, cong Ac trans Ci fib]
+27.0 +25.2 90 +39 +39 очень
душно
1011.0 1010.8
18 14.05 З 2 9000 м 8/4 570 м
[Cu med, cong Ac trans Ci fib]
+26.2 +24.4 90 +37 +37 очень
душно
1009.6 1009.4
00 15.05 СВ 1 9000 м 9/4 570 м
[Cu med, cong Ac trans Ci fib]
+29.4 +25.7 81 +44 +47 опасность
перегрева
1012.7 1012.5 +24.4
03 15.05 ЮВ 2 9000 м 8/4 570 м
[Cu med, cong Ac trans Ci fib]
+31.4 +25.5 71 +46 +54 опасность
перегрева
1011.9 1011.7
06 15.05 Ю 2 10 км 6/4 570 м
[Cu med, cong Ac trans Ci fib]
+31.0 +25.0 70 +44 +51 опасность
перегрева
1009.8 1009.6
09 15.05 З 1 8000 м осадки на расстоянии 8/5 500 м
[Cb cap Ac trans Ci fib]
+28.8 +24.4 77 +40 +41 очень
душно
1010.4 1010.2
12 15.05 СЗ 1 9000 м 5/3 570 м
[Cu med, cong Ac trans Ci fib]
+27.0 +24.3 85 +38 +38 очень
душно
1011.3 1011.0 +32.2
15 15.05 З 1 9000 м 5/3 570 м
[Cu med, cong Ac trans Ci fib]
+25.8 +24.0 90 +36 +36 очень
душно
1011.2 1011.0
18 15.05 З 1 9000 м 5/3 570 м
[Cu med, cong Ac trans Ci fib]
+25.2 +23.4 90 +34 +34 очень
душно
1009.1 1008.9
00 16.05 ЮВ 1 9000 м 8/4 570 м
[Cu med, cong Ac trans Ci fib]
+28.4 +23.7 76 +39 +42 очень
душно
1011.5 1011.2 +24.0
03 16.05 В 2 10 км 5/3 570 м
[Cu med, cong Ac trans Ci fib]
+31.6 +25.1 69 +46 +57 опасность
перегрева
1011.2 1011.0
06 16.05 В 1 10 км 5/3 570 м
[Cu med, cong Ac trans Ci fib]
+31.8 +25.3 69 +46 +55 опасность
перегрева
1008.7 1008.5
09 16.05 В 1 10 км 5/3 570 м
[Cu med, cong Ac trans Ci fib]
+30.8 +24.5 69 +43 +44 опасность
перегрева
1009.0 1008.7
12 16.05 З 1 10 км 5/3 570 м
[Cu med, cong Ac trans Ci fib]
+27.8 +24.6 83 +39 +39 очень
душно
1010.2 1010.0 +32.0
15 16.05 СЗ 1 9000 м 6/4 570 м
[Cu med, cong Ac trans Ci fib]
+26.4 +24.0 87 +37 +37 очень
душно
1010.5 1010.3
18 16.05 штиль 0 10 км 5/3 570 м
[Cu med, cong Ac trans Ci fib]
+25.4 +23.9 91 +35 +35 очень
душно
1009.2 1009.0
00 17.05 В 1 9000 м 8/5 500 м
[Cb cap Ac trans Ci fib]
+30.0 +25.7 78 +45 +47 опасность
перегрева
1011.0 1010.8 +24.4
03 17.05 ЮЗ 2 9000 м 8/5 500 м
[Cb cap Ac trans Ci fib]
+30.8 +25.7 74 +45 +52 опасность
перегрева
1010.2 1010.0 0.0
06 17.05 Ю 4 9000 м 8/4 570 м
[Cu med, cong Ac trans Ci fib]
+31.2 +24.9 69 +44 +48 опасность
перегрева
1008.0 1007.8
09 17.05 ЮЗ 2 10 км 8/4 570 м
[Cu med, cong Ac trans Ci fib]
+30.4 +24.4 70 +42 +43 опасность
перегрева
1008.9 1008.6
12 17.05 З 1 8000 м 9/4 570 м
[Cu med, cong Ac As Ci fib]
+27.8 +24.9 84 +40 +40 очень
душно
1010.9 1010.7 +32.2
15 17.05 СЗ 1 9000 м 8/4 570 м
[Cu med, cong Ac trans Ci fib]
+26.4 +24.3 88 +37 +37 очень
душно
1011.2 1011.0
18 17.05 СЗ 1 8000 м 8/3 570 м
[Cu med, cong Ac trans Ci fib]
+25.8 +24.0 90 +36 +36 очень
душно
1009.6 1009.4
00 18.05 ЮВ 1 9000 м 9/4 540 м
[Cu med, cong Ac As Ci fib]
+29.6 +25.3 78 +43 +46 опасность
перегрева
1012.2 1011.9 +25.4 0.0
03 18.05 Ю 2 7000 м слаб. дождь 9/4 500 м
[Cb cap Ac As Ci fib]
+28.8 +25.3 81 +42 +49 опасность
перегрева
1011.9 1011.6 0.0
06 18.05 СЗ 2 8000 м 9/4 570 м
[Cu med, cong Ac As Ci fib]
+30.2 +25.4 76 +44 +49 опасность
перегрева
1009.3 1009.1 0.0
09 18.05 В 1 9000 м 5/3 540 м
[Cu med, cong Ac trans Ci fib]
+29.2 +25.2 79 +42 +43 опасность
перегрева
1009.5 1009.2
12 18.05 СЗ 1 9000 м 3/1 540 м
[Cu hum Ci fib]
+27.0 +24.9 88 +39 +39 очень
душно
1011.3 1011.1 +30.4
15 18.05 штиль 0 9000 м 5/3 570 м
[Cu med, cong Ac trans Ci fib]
+25.8 +24.3 91 +36 +36 очень
душно
1011.7 1011.5
18 18.05 штиль 0 9000 м 5/3 570 м
[Cu med, cong Ac trans Ci fib]
+25.4 +24.2 93 +35 +35 очень
душно
1011.2 1011.0
00 19.05 В 2 10 км 4/3 600 м
[Cu hum Ac trans]
+29.4 +25.7 81 +44 +48 опасность
перегрева
1011.8 1011.6 0.0
03 19.05 СВ 2 9000 м 6/5 570 м
[Cu med, cong Ac trans Ci fib]
+31.2 +25.5 72 +46 +54 опасность
перегрева
1012.0 1011.8
06 19.05 СВ 2 10 км 6/4 600 м
[Cu med, cong Ac trans Ci fib]
+31.2 +25.5 72 +46 +52 опасность
перегрева
1009.5 1009.3
09 19.05 ЮЗ 2 10 км 5/3 600 м
[Cu med, cong Ac trans Ci fib]
+31.0 +24.4 68 +43 +44 опасность
перегрева
1009.9 1009.7
12 19.05 З 1 9000 м 5/3 570 м
[Cu med, cong Ac trans Ci fib]
+27.4 +24.8 86 +39 +39 очень
душно
1011.6 1011.4 +32.6
15 19.05 З 1 10 км 5/3 570 м
[Cu med, cong Ac trans Ci fib]
+26.4 +24.3 88 +37 +37 очень
душно
1011.5 1011.2
18 19.05 СЗ 1 9000 м 9/4 570 м
[Cu med, cong Ac As Ci fib]
+25.6 +24.1 91 +35 +35 очень
душно
1010.0 1009.8
00 20.05 штиль 0 9000 м 9/5 500 м
[Cb cap Ac As Ci fib]
+28.4 +24.9 81 +41 +43 опасность
перегрева
1011.4 1011.2 +24.2
03 20.05 В 2 9000 м 9/4 570 м
[Cu med, cong Ac As Ci fib]
+31.2 +25.5 72 +46 +53 опасность
перегрева
1011.1 1010.9
06 20.05 ЮВ 1 8000 м слаб. дождь 9/5 500 м
[Cb cap Ac As Ci fib]
+30.6 +26.1 77 +46 +51 опасность
перегрева
1009.0 1008.8
09 20.05 ЮЗ 2 8000 м осадки на расстоянии 10/4 500 м
[Cb cap Ac As Ci fib]
+29.2 +25.8 82 +44 +44 опасность
перегрева
1009.1 1008.9 2

 

Местоположение метеостанции Санана (Индонезия): широта -2.08 долгота 126.00 высота над уровнем моря 2 м.

В архиве по умолчанию представлена погода на Санане за последнюю неделю. Архивные данные за месяц целиком и за предыдущие месяцы, начиная с января 2011 года, Вы можете получить, выбрав интересующий диапазон дат из раскрывающегося списка и нажав кнопку "Ввод!".


*Определитесь, кто Вы:
робот инопланетянин человек

Внимание! Время в таблицах - всемирное. Для получения местного времени необходимо прибавить поправку, которая равна 9 ч.

Смотрите также архив погоды в соседних городах и на ближайших метеорологических станциях:

Погода в Тауне (Индонезия) (177 км)
Погода в Намлеа (Индонезия) (177 км)
Погода в Лабухе (Индонезия) (232 км)
Погода в Амбоне (Индонезия) (293 км)
Погода в Амахаи (Индонезия) (350 км)
Погода в Тернате (Индонезия) (351 км)
Погода в Лувуке (Индонезия) (381 км)
Погода в Битунге (Индонезия) (401 км)
Погода в Менадо (Индонезия) (419 км)
Погода в Горонтало (Индонезия) (436 км)

Пояснения к столбцам:

Ветер - указаны скорость ветра в м/с - средняя за 10 мин, порывы в срок и между сроками (в фигурных скобках) и направление, откуда дует ветер: С - северный, СВ - северо-восточный, В - восточный, ЮВ - юго-восточный, Ю - южный, ЮЗ - юго-западный, З - западный, СЗ - северо-западный.
Видимость - горизонтальная дальность видимости в метрах или километрах. При видимости от 1 до 10 км при отсутствии осадков обычно наблюдается дымка, при ухудшении видимости до 1 км и менее - туман. В сухую погоду видимость может ухудшаться дымом, пылью или мглою.
Явления - указаны атмосферные явления, наблюдавшиеся в срок или в последний час перед сроком; фигурными скобками обозначены явления, наблюдавшиеся между сроками (за 1-3 часа до срока); квадратными скобками обозначены град или гололедные отложения с указанием их диаметра в мм.
Облачность - указаны через наклонную черту общая и нижняя облачность в баллах и высота нижней границы облаков в метрах; квадратными скобками обозначены формы облаков: Ci - перистые, Cs - перисто-слоистые, Cc - перисто-кучевые, Ac - высококучевые, As - высокослоистые, Sc - слоисто-кучевые, Ns - слоисто-дождевые, Cu - кучевые, Cb - кучево-дождевые. Подробнее классификацию облаков см. в Атласе облаков (PDF).
T - Температура воздуха - температура, измеренная на высоте 2 м над землей.
Td - Температура точки росы - температура, при понижении до которой содержащийся в воздухе водяной пар достигнет насыщения.
f - Относительная влажность воздуха - влажноcть воздуха, измеренная на высоте 2 м над землей.
Te - Эффективная температура - температура, которую ощущает одетый по сезону человек в тени. Характеристика душности погоды. При расчете учитывается влияние влажности воздуха и скорости ветра на теплоощущения человека.
Tes - Эффективная температура на солнце - температура, которую ощущает человек, с поправкой на солнечный нагрев. Характеристика знойности погоды. Зависит от высоты солнца над горизонтом, облачности и скорости ветра. Ночью, в пасмурную погоду, а также при ветре 12 м/с и более поправка равна нулю.
P - Атмосферное давление - приведенное к уровню моря атмосферное давление.
Po - Атмосферное давление - измеренное на уровне метеостанции атмосферное давление.
Tmin - Минимальная температура - минимум температуры воздуха на высоте 2 м над землей.
Tmax - Максимальная температура - максимум температуры воздуха на высоте 2 м над землей.
R - Количество осадков - Количество выпавших осадков за период времени, мм. При наведении курсора мыши на число - период времени, за который выпало указанное количество осадков.
R24 - Количество осадков - Количество выпавших осадков за 24 часа, мм.
S - Снежный покров - Высота снежного покрова, см. При наведении курсора мыши на число - состояние снежного покрова и степень покрытия местности в баллах.